SKYSAT-A

Last updated on Sat Mar 14 2026 00:02:36 GMT+0000 (Coordinated Universal Time)

1 39418U 13066C 26072.60531246 .00003949 00000+0 23018-3 0 9996 2 39418 97.3951 125.0274 0020000 285.9741 73.9286 15.12386451674031
UTC large
Height (km)
Speed (km/s)
/
Latitude / Longitude
Inclination (degrees)
Orbital Period (minutes)
Azimuth
Elevation
Range (km)
Doppler Factor

Next 0 passes for location: London (51.5072 / 0.1276)

Sorry there are no passes over London.